RH
18 15 12 10 20 22 12 9 10 12 15 16 18 18 20 31 32 43 45 42 34 32 25 29 26 35 20 11 10 9 9 9 9 8 8 10 15 21 26 27 22 21 24 42 51 53 52 56 64
21 19 19 23 27 14 10 9 13 16 18 14 19 19 22 35 34 39 22 32 28 28 28 32 31 33 13 11 12 11 10 9 8 7 7 7 10 14 19 28 29 31 29 42 50 52 56 63 76
23 22 21 33 21 16 11 13 15 18 16 23 21 20 25 34 37 25 23 27 27 34 33 36 39 18 12 15 13 11 10 9 8 7 6 7 11 22 31 34 33 36 36 48 49 54 59 67 80
24 25 23 25 19 14 13 15 17 17 22 28 25 24 28 31 28 19 19 23 24 32 34 41 32 12 17 17 13 12 11 10 9 8 7 9 13 18 25 29 35 38 38 51 53 61 64 68 74
25 32 34 26 20 17 17 19 22 23 24 30 30 26 28 34 35 20 17 18 24 31 35 43 22 15 19 16 13 12 12 11 10 9 8 13 13 14 20 27 35 44 45 51 56 63 67 70 72
38 31 27 23 17 17 22 27 31 29 30 30 31 30 29 35 36 29 20 13 19 27 30 42 18 18 20 16 14 13 13 12 12 12 10 9 24 14 18 27 30 39 44 52 56 63 70 70 70
37 32 27 23 21 19 28 31 32 34 32 26 29 29 29 31 34 33 24 18 13 19 37 42 24 17 19 16 15 16 14 13 14 14 13 10 9 13 15 16 25 34 39 54 64 73 72 69 72
36 34 28 24 20 20 30 32 27 26 25 24 25 23 30 33 33 26 25 50 19 16 22 51 45 19 19 16 16 17 16 15 15 15 14 12 9 9 16 14 14 20 30 47 60 68 66 70 77
32 30 24 20 22 25 30 28 18 18 14 15 19 18 22 18 10 13 21 35 28 22 18 27 56 41 19 18 16 17 17 16 15 15 14 14 11 10 11 13 14 16 20 34 51 59 54 53 63
27 24 20 24 27 27 24 17 11 10 9 8 10 16 15 3 3 6 10 20 26 30 30 25 46 64 42 20 18 16 18 17 17 16 16 16 14 13 13 13 13 16 20 25 38 42 52 61 67
22 21 18 20 21 21 22 8 9 9 8 8 9 10 6 4 11 7 4 7 13 25 27 35 50 56 65 46 21 17 18 19 19 18 17 17 16 16 16 17 14 12 18 25 30 36 42 68 73
16 19 16 22 18 12 4 4 3 9 9 10 11 8 5 11 8 14 6 4 2 5 12 27 33 52 70 64 46 21 17 20 20 20 20 18 18 17 18 20 18 13 12 22 31 34 42 71 72
15 17 14 16 8 4 4 3 4 5 10 10 7 4 8 13 17 22 15 10 8 4 3 4 13 29 36 52 59 40 23 19 22 21 22 21 20 19 19 20 21 17 13 16 40 34 40 70 79
15 15 14 12 12 14 6 4 6 10 11 10 7 12 13 19 25 28 28 34 36 21 12 4 3 5 13 35 43 64 39 23 20 24 22 23 22 21 20 22 23 22 18 14 27 35 37 67 82
12 12 12 11 13 14 10 7 9 12 13 10 13 15 20 24 26 29 36 49 50 52 23 3 3 3 4 16 29 37 60 39 24 21 26 26 26 23 22 22 26 24 23 18 15 35 40 77 78
12 12 13 11 13 15 12 10 11 11 12 12 14 18 24 28 32 40 52 48 31 8 2 1 2 3 3 3 7 25 33 92 43 26 22 27 28 29 23 22 23 28 28 26 17 20 39 54 71
15 15 11 14 15 14 12 12 10 11 11 12 17 23 32 37 46 56 44 13 8 5 6 5 3 2 2 2 3 3 14 32 97 49 26 23 27 33 32 24 23 26 30 32 28 18 24 47 66
14 14 13 13 13 13 12 12 11 11 12 15 24 33 47 56 60 48 7 7 9 8 12 15 13 9 4 1 2 2 3 8 32 97 50 25 24 30 36 32 25 26 28 32 35 32 21 28 54
18 14 13 11 10 12 13 13 12 12 15 20 31 48 52 57 44 18 21 21 19 24 29 30 24 20 24 20 5 3 3 4 6 36 98 56 25 27 32 37 34 26 26 29 33 37 36 28 39
15 11 10 11 12 13 13 12 13 15 20 27 45 51 63 32 32 25 26 26 32 35 34 28 22 19 29 27 23 24 6 4 6 7 55 96 57 25 29 34 37 30 27 27 28 34 34 36 34
14 13 13 15 14 13 13 14 14 18 21 36 47 60 46 18 17 21 23 35 43 38 35 30 24 24 38 41 34 26 17 8 5 6 7 66 99 47 26 31 35 36 29 28 25 30 32 31 34
17 16 14 14 14 12 15 14 14 18 21 37 49 52 33 17 23 28 36 40 39 41 44 42 29 32 41 53 48 44 35 18 12 14 12 10 60 89 28 28 32 36 33 30 26 28 32 32 29
17 21 16 15 16 19 18 16 15 14 22 40 59 64 21 18 25 38 41 40 41 42 45 46 43 47 59 38 40 40 41 39 40 50 30 12 30 84 53 33 30 38 42 31 28 27 31 30 27
20 13 13 18 23 26 24 20 16 16 36 55 66 49 29 19 25 31 43 45 41 41 45 56 64 76 46 34 32 38 39 32 65 56 56 16 4 49 100 66 31 37 58 44 30 27 31 33 29
20 20 21 25 31 30 20 20 18 31 49 58 63 50 25 19 27 32 41 46 42 38 50 65 83 73 47 40 40 42 44 38 66 74 41 50 21 6 66 84 58 44 67 60 38 28 30 32 32
27 21 26 34 28 22 16 15 24 38 58 70 82 50 27 24 29 35 41 46 42 44 51 66 77 93 58 67 31 26 45 55 73 84 46 45 96 6 12 96 85 59 70 70 50 30 31 34 36
26 31 30 38 30 21 16 15 27 42 60 73 74 42 29 24 30 34 40 45 45 54 60 78 92 100 94 69 49 54 79 78 92 75 40 59 88 50 30 48 100 98 61 66 59 34 35 37 40
30 38 36 30 31 25 16 14 32 53 68 77 49 39 24 24 34 36 38 40 51 63 70 88 98 100 94 69 61 59 68 76 67 73 58 55 71 98 58 30 92 98 91 66 48 38 39 41 44
32 43 40 42 41 34 27 22 46 61 78 45 43 37 31 24 37 42 40 43 59 76 80 92 98 100 88 56 70 61 66 67 56 47 34 44 56 98 67 39 62 94 82 83 66 51 43 44 46
33 40 38 43 29 32 35 36 47 55 52 50 46 35 33 24 39 44 46 48 57 74 82 97 97 99 99 90 74 72 58 58 39 25 32 59 75 68 68 62 51 81 66 85 81 73 65 56 53
Wind_Speed
6 5 4 4 3 8 17 18 5 6 5 5 5 3 4 4 2 3 11 13 6 16 12 11 10 9 7 5 6 8 9 7 7 5 5 5 4 4 5 6 5 3 3 4 4 5 6 6 8
6 5 2 3 10 16 14 5 9 7 8 3 6 4 1 4 6 7 15 9 6 10 12 10 10 9 8 5 6 7 8 7 8 7 5 5 4 4 5 5 5 2 4 5 5 4 5 6 7
7 5 2 5 13 18 11 7 7 6 2 5 3 5 4 6 9 17 14 8 7 9 10 11 11 10 8 8 9 7 7 7 8 7 4 4 4 3 3 3 4 3 4 5 4 4 6 7 7
7 6 4 10 15 18 6 3 3 3 5 4 4 2 3 12 16 17 17 12 12 14 12 14 14 12 9 10 10 9 8 8 7 6 4 3 4 2 2 3 3 4 5 4 5 6 6 7 7
2 4 12 17 17 17 5 1 1 3 4 6 6 2 3 8 14 19 16 18 14 16 15 16 15 12 9 11 11 11 10 8 7 6 6 4 2 3 3 3 4 4 5 6 6 7 8 8 9
6 6 12 16 15 14 2 5 2 2 4 6 5 4 3 13 20 23 18 20 15 16 16 16 17 14 12 12 13 12 12 10 9 7 6 5 5 3 4 4 5 5 6 6 8 8 9 10 11
6 10 18 17 19 14 3 6 3 2 4 6 7 6 10 16 18 18 16 19 22 17 19 19 19 19 15 16 15 14 14 12 10 10 8 6 5 6 5 5 6 7 7 7 9 8 10 12 13
8 12 17 17 18 11 6 3 3 6 6 11 7 4 11 20 22 18 13 10 21 22 21 23 24 24 20 19 18 16 15 14 13 11 9 8 6 6 7 6 6 8 8 9 11 11 12 14 13
7 11 13 14 11 6 2 3 7 8 9 7 9 15 18 18 15 13 9 11 18 21 24 22 27 28 26 23 21 20 17 16 14 12 11 9 7 7 7 8 8 8 9 10 12 13 14 15 17
7 11 10 8 6 8 5 8 9 7 7 7 6 8 18 17 13 12 11 12 13 16 16 23 23 29 29 27 26 23 20 20 18 15 13 11 9 8 8 8 9 9 10 11 12 14 14 16 18
11 15 14 8 18 21 22 12 12 8 5 9 14 22 20 14 14 15 13 15 15 17 21 16 17 24 30 31 29 27 26 24 22 19 16 14 12 11 11 8 8 9 10 11 12 14 13 15 16
15 13 16 11 19 15 16 16 13 8 7 9 16 16 14 14 15 15 16 15 18 20 21 23 22 20 23 32 34 32 30 30 26 24 22 18 16 14 13 10 9 8 9 11 12 12 11 13 16
15 14 14 14 18 15 14 13 12 10 10 13 13 13 14 15 11 13 18 17 17 18 22 24 25 26 27 27 32 35 34 35 30 29 24 23 20 17 15 13 10 8 8 11 11 12 11 14 18
12 13 13 13 12 13 12 9 11 6 15 14 14 14 13 10 8 11 14 13 16 18 19 26 29 29 28 31 32 33 40 38 38 35 30 27 25 22 19 16 13 10 9 7 9 10 11 14 18
17 15 15 18 15 11 10 10 14 8 10 16 11 12 8 7 8 10 11 16 18 19 27 27 32 35 37 38 39 39 37 45 44 41 37 33 29 26 23 20 16 11 9 8 7 10 10 15 18
15 14 16 14 20 12 11 9 1 7 10 12 13 7 8 9 10 9 14 20 26 31 35 36 33 34 38 41 43 45 47 38 51 48 44 39 35 31 29 25 20 15 11 8 7 10 11 14 18
14 16 15 11 11 9 10 9 13 11 13 12 6 5 6 6 8 17 27 30 30 34 34 36 40 43 41 44 49 49 51 51 42 56 52 47 42 38 33 29 25 21 17 12 9 9 10 14 17
11 21 11 7 6 8 11 15 13 12 13 9 4 4 5 10 16 29 33 31 33 36 38 41 37 40 45 49 49 55 54 56 56 46 60 56 50 45 40 33 31 27 24 19 14 10 8 12 15
11 9 9 10 13 13 14 16 18 14 10 7 6 4 7 12 23 34 35 35 36 36 39 41 45 42 45 51 54 60 60 58 61 60 51 64 58 52 48 41 37 34 30 25 19 15 12 10 16
10 13 16 16 15 12 16 19 17 10 10 10 5 5 13 22 28 34 35 37 38 38 40 46 49 55 47 49 56 58 69 65 61 62 59 48 66 60 55 49 44 40 35 33 26 22 19 15 15
16 18 16 13 15 17 21 20 18 13 11 10 8 11 18 27 35 36 35 38 40 42 46 49 50 51 47 41 45 50 58 68 65 62 66 66 53 68 62 56 51 46 40 38 32 27 24 21 18
15 11 15 13 11 14 6 16 14 19 17 14 12 25 24 33 38 35 35 39 44 47 52 53 56 56 47 38 42 46 57 62 63 62 63 72 71 72 76 64 56 52 47 43 39 32 28 27 24
10 13 15 15 16 19 21 17 15 23 20 11 14 18 26 35 41 38 38 42 48 51 54 55 57 53 39 33 36 42 47 55 63 63 57 62 74 71 71 67 59 57 52 46 43 38 34 31 28
14 14 15 17 17 16 29 23 12 17 12 6 15 22 27 35 39 38 40 42 46 49 56 54 52 43 36 38 40 42 47 50 62 64 54 59 71 72 50 65 60 61 55 49 46 41 36 34 32
22 9 6 11 10 9 4 8 11 11 6 8 16 23 25 36 38 41 42 44 48 51 56 52 42 38 39 41 41 39 46 48 58 61 60 53 60 70 66 59 64 65 56 49 47 44 39 36 33
15 17 12 5 8 7 8 6 8 10 8 1 9 20 32 37 39 42 43 44 49 50 57 53 38 33 38 35 25 30 33 43 52 56 53 54 54 64 76 68 58 65 57 50 46 46 39 35 32
14 12 9 8 16 8 13 12 8 10 3 9 17 27 37 39 38 40 41 42 47 51 54 52 37 31 34 32 23 24 28 33 40 54 47 55 53 64 55 84 52 55 52 52 44 46 40 36 32
15 9 6 7 4 10 13 16 12 7 2 10 23 34 37 38 36 39 40 43 44 48 50 48 35 28 32 30 24 24 26 35 39 45 49 58 63 34 49 61 47 41 51 46 44 45 41 37 33
19 16 11 9 13 4 5 2 5 5 5 18 27 35 36 38 36 40 41 42 41 42 44 45 28 25 26 24 22 18 20 24 31 33 37 46 49 31 41 46 61 29 37 51 48 44 41 36 34
17 17 19 8 8 13 6 6 6 10 14 18 24 34 36 36 36 38 39 40 39 38 41 42 29 21 20 18 18 16 15 15 17 23 37 32 36 37 36 36 43 46 35 50 50 46 40 36 35
Wind_Direction
263 255 262 256 257 247 256 264 122 133 138 225 349 23 12 324 264 68 271 268 294 269 197 193 203 228 241 264 300 310 309 311 308 312 308 300 284 278 286 298 297 268 212 204 219 219 229 228 231
266 259 160 155 250 267 285 64 107 133 183 260 18 39 317 99 273 245 265 266 270 261 187 200 203 228 244 253 264 281 292 301 297 302 307 305 297 294 291 289 283 250 214 218 224 228 231 228 232
288 274 192 257 252 264 308 101 87 7 10 41 68 352 230 286 283 265 267 259 257 259 212 210 209 226 232 256 266 273 276 283 288 292 307 304 294 302 299 276 271 249 233 228 235 233 233 229 227
282 298 262 247 258 268 15 89 106 58 20 14 11 8 345 299 283 263 265 269 275 273 223 213 216 221 236 261 260 260 263 269 278 283 267 272 296 295 279 266 246 249 240 239 242 234 237 237 231
286 177 256 262 265 269 240 277 74 6 296 331 281 274 326 279 275 280 277 261 277 270 241 222 224 224 251 257 260 264 263 261 264 269 269 217 238 266 243 244 243 234 243 239 245 242 242 237 234
235 262 262 261 256 226 228 231 79 332 274 317 292 278 43 235 263 276 289 268 267 276 251 238 230 230 245 252 259 265 267 262 259 257 255 248 194 221 247 228 242 241 247 242 244 243 246 244 242
226 252 261 278 290 306 207 249 270 256 303 277 271 266 219 279 276 280 289 277 264 271 266 249 234 237 239 241 249 260 265 267 264 263 258 241 237 198 224 247 244 246 248 235 237 231 240 246 246
252 259 271 271 266 278 267 358 322 319 251 251 298 264 235 262 267 282 277 300 271 266 265 251 243 245 244 242 244 253 262 264 265 269 267 258 231 239 210 225 245 250 248 237 237 233 239 246 246
236 259 262 270 310 116 108 2 3 293 317 305 264 274 255 276 291 286 266 249 265 273 268 263 249 246 248 247 250 252 256 259 260 265 274 267 255 240 247 227 231 243 250 245 242 242 249 251 244
248 253 273 308 296 250 306 303 326 301 308 308 249 258 281 305 310 298 282 275 264 271 270 269 257 250 247 250 250 256 253 252 256 259 262 260 256 247 246 253 241 235 243 250 248 253 255 254 238
260 259 277 293 273 260 272 301 261 302 304 301 270 258 288 310 320 309 287 280 275 261 262 263 276 257 249 249 251 253 256 253 253 255 255 258 252 248 252 254 260 253 240 248 253 255 264 257 232
253 260 265 256 271 266 268 268 280 291 272 283 278 292 314 308 310 311 300 284 275 273 268 266 260 257 263 247 250 250 253 254 252 251 254 252 254 252 252 257 260 260 264 249 249 254 261 239 225
259 262 269 262 270 278 274 279 285 288 269 264 277 301 311 312 333 307 304 302 295 278 270 269 269 268 263 264 249 249 246 251 251 252 246 253 253 252 254 258 258 257 262 266 250 245 247 233 225
254 238 248 265 266 271 285 290 284 292 265 278 309 317 314 341 327 330 325 318 305 292 276 262 257 256 255 262 257 251 249 246 247 250 247 244 249 250 251 249 256 257 265 272 262 253 235 227 224
251 266 272 264 246 247 287 325 268 215 251 302 320 311 336 331 327 330 318 322 305 294 275 260 255 252 254 250 253 254 248 249 246 243 246 244 242 245 247 245 244 250 265 268 273 254 234 216 225
271 264 268 288 209 238 290 272 39 300 305 307 306 328 325 331 342 314 276 268 275 278 283 282 276 270 263 259 253 249 251 253 246 243 241 242 241 239 242 243 243 240 238 251 257 258 236 222 224
246 249 246 210 218 224 270 261 265 286 288 300 304 304 331 316 289 280 270 278 293 296 293 286 280 276 265 259 256 249 248 247 251 244 240 237 238 239 236 239 239 238 234 225 235 245 239 225 225
270 223 237 232 233 219 259 283 284 275 287 266 264 255 297 324 311 285 289 311 295 293 295 293 287 281 270 263 256 254 249 245 242 247 241 237 234 237 235 231 235 233 235 227 220 222 229 222 229
247 274 268 250 268 269 279 279 288 284 256 216 219 288 317 289 279 298 315 307 302 302 299 300 298 284 280 278 259 259 252 241 243 239 235 241 232 230 235 230 230 231 232 233 223 219 220 218 219
248 267 262 264 264 282 282 284 281 241 199 201 232 296 289 299 313 310 309 309 310 309 309 308 308 305 291 279 264 254 257 253 240 240 234 231 237 227 229 231 227 228 229 230 226 222 225 222 224
258 255 256 266 269 290 281 268 265 204 193 204 238 256 293 325 324 320 308 312 314 312 315 315 310 305 297 279 266 251 248 252 255 246 238 228 231 230 224 228 228 228 227 229 228 224 228 229 231
250 265 230 261 284 274 254 287 232 206 193 213 259 269 299 324 329 319 314 318 322 319 323 322 313 307 297 286 266 255 245 241 248 251 245 236 226 229 215 219 226 228 225 227 229 224 227 232 234
252 245 248 266 272 278 265 260 249 212 187 227 276 291 313 328 329 323 319 324 330 326 320 325 315 307 297 284 271 262 252 247 244 242 249 243 233 239 217 220 216 227 225 224 228 227 225 232 238
226 257 269 263 262 264 262 238 232 186 209 250 283 293 316 325 327 326 321 324 325 326 329 329 316 304 302 293 284 262 249 246 240 239 235 240 238 236 238 222 214 224 224 222 225 225 226 231 239
242 242 264 218 228 242 154 167 229 204 201 271 303 303 321 328 329 332 327 326 330 332 335 332 315 309 312 306 291 279 257 241 235 237 235 230 237 235 239 227 217 218 220 221 225 225 224 229 237
229 221 243 285 255 270 182 231 156 170 129 317 298 313 334 334 333 334 330 330 333 337 336 331 318 316 319 311 285 282 270 244 230 235 241 223 237 230 233 235 212 214 218 220 221 226 222 223 229
204 225 242 259 269 280 261 264 159 168 183 304 305 327 336 336 336 333 334 333 333 341 337 334 329 326 319 318 291 280 253 235 232 238 234 223 244 235 248 222 196 208 215 218 218 224 219 218 223
209 207 213 216 245 247 249 239 136 172 235 294 324 333 332 337 337 336 337 336 339 341 337 335 329 330 323 320 301 284 252 234 232 237 236 227 230 231 234 244 216 195 215 218 216 220 217 217 224
207 211 214 240 245 257 276 245 123 166 245 313 322 326 331 339 338 342 342 342 341 343 338 338 331 326 320 310 311 294 262 252 240 231 228 237 226 244 232 245 227 227 207 214 216 220 220 218 224
227 220 215 212 231 222 275 280 246 249 289 312 329 330 327 336 340 343 344 343 341 344 343 343 330 319 325 315 309 303 276 240 218 216 215 224 234 231 229 241 236 213 220 216 216 221 220 223 229